Weather Roundup
Issued by NWS Springfield, MO

Home | Current Version | Previous Version | Text Only | Print | Product List | Glossary On
Versions: 1 2 3 4 5 6 7 8 9 10 11 12 13 14 15 16 17 18 19 20 21 22 23 24 25 26 27 28 29 30 31 32 33 34 35 36 37 38 39 40 41 42 43 44 45 46 47 48 49 50
000
NZUS99 KSGF 270507
HRRSGF

HOURLY WEATHER
NATIONAL WEATHER SERVICE SPRINGFIELD MO
1200 AM CDT FRI MAR 27 2015

......SGF CWA......

CITY           SKY/WX    TMP DP  RH WIND       PRES   REMARKS
SPRINGFIELD    CLOUDY    42  29  59 CALM      30.06S
JOPLIN         LGT RAIN  46  33  60 W13       30.11R
WEST PLAINS    CLEAR     34  27  75 MISG      30.05F
ROLLA          CLOUDY    41  29  62 MISG      30.04F
OSAGE BEACH    CLOUDY    39  30  70 CALM      30.08R
BRANSON        CLEAR     41  28  60 CALM      30.06S

......SURROUNDING SGF CWA......

CITY           SKY/WX    TMP DP  RH WIND       PRES   REMARKS
CHANUTE        MOCLDY    43  38  82 NE12      30.10R
PARSONS        CLOUDY    48  33  56 N6        30.11R
COFFEYVILLE    CLOUDY    45  35  68 E3        30.07R
EMPORIA        CLOUDY    40  38  93 NE13      30.10S WCI  32
GROVE OK       CLOUDY    45  37  76 NE3       30.07S
ROGERS AR      CLOUDY    41  34  76 S7        30.06F
SILOAM SPRINGS MOCLDY    39  28  65 SW3       30.07F
HARRISON AR    CLEAR     40  29  64 SW5       30.05F
NEAR YELLVILLE CLEAR     39  27  60 CALM      30.05F

......KANSAS AND MISSOURI......

CITY           SKY/WX    TMP DP  RH WIND       PRES   REMARKS
KANSAS CTY INT LGT RAIN  38  35  89 N13       30.15R WCI  30
DOWNTOWN KC    LGT RAIN  41  35  79 N14       30.15R
COLUMBIA       CLOUDY    41  31  67 NW7       30.07F
SEDALIA        CLOUDY    44  31  60 NW3       30.10R
ST JOSEPH      MOCLDY    36  33  89 N8        30.18S WCI  30
ST LOUIS       MOCLDY    40  28  62 NW3       30.06F
SPIRIT OF STL  FAIR      34  31  88 CALM      30.06F
KIRKSVILLE     CLOUDY    37  29  72 N12       30.13R WCI  29
WICHITA        FAIR      43  33  68 W9        30.03S
TOPEKA         LGT RAIN  38  35  89 NE15      30.18R WCI  29
OLATHE         LGT RAIN  39  36  89 N13       30.14R WCI  31

......TENNESSEE......

CITY           SKY/WX    TMP DP  RH WIND       PRES   REMARKS
MEMPHIS        CLEAR     43  35  73 NE5       30.07R
NASHVILLE      CLOUDY    42  36  79 N10       30.01R

......ARKANSAS.......

CITY           SKY/WX    TMP DP  RH WIND       PRES   REMARKS
FAYETTEVILLE   PTCLDY    36  35  96 S6        30.07F WCI  31
FT SMITH       PTCLDY    44  35  70 SE5       30.07F
LITTLE ROCK    CLEAR     49  33  54 CALM      30.08S

......OKLAHOMA.......

CITY           SKY/WX    TMP DP  RH WIND       PRES   REMARKS
TULSA          MOCLDY    49  32  52 S9        30.05S
PONCA CITY     CLEAR     48  30  49 SW5       30.06R
MCALESTER      MOCLDY    42  34  73 CALM      30.09F
OKLAHOMA CITY  PTCLDY    44  33  65 SW9       30.08S

......IOWA............

CITY           SKY/WX    TMP DP  RH WIND       PRES   REMARKS
DES MOINES     MOCLDY    33  20  58 N17       30.19R WCI  22
QUAD CITIES    CLOUDY    31  21  66 NW12      30.13R WCI  22

......ILLINOIS........

CITY           SKY/WX    TMP DP  RH WIND       PRES   REMARKS
QUINCY         CLOUDY    36  26  67 NE13      30.11R WCI  27
CHICAGO        CLOUDY    32  17  54 N16G23    30.07R WCI  21



USA.gov is the U.S. government's official web portal to all federal, state and local government web resources and services.